Home   Weather   Maldonado   Past weeks

Flag for Uruguay Past Weather in Maldonado, Uruguay — Yesterday and Last 2 Weeks

Now
70 °F

Clear.


Feels Like: 70 °F
Forecast: 74 / 87 °F
Wind: 2 mph from North

Location: Capitan Corbeta

Current Time: Feb 22, 2017 at 3:37:04 am

Latest Report: Feb 22, 2017 at 3:00 am


Visibility: 10 mi

Pressure: 29.86 "Hg

Humidity: 88%

Dew Point: 66 °F

Location of MaldonadoLocation

Past Weather in Maldonado — Graph

°F

Maldonado Temperature Yesterday

Maximum temperature yesterday: 88 °F (at 12:00 pm)
Minimum temperature yesterday: 72 °F (at 10:00 pm)
Average temperature yesterday: 78 °F

High & Low Weather Summary for the Past Weeks

 TemperatureHumidityPressure
High88 °F (Feb 21, 12:00 pm)100% (Feb 13, 3:00 am)30.07 "Hg (Feb 13, 3:00 am)
Low57 °F (Feb 7, 9:00 pm)47% (Feb 8, 2:00 pm)29.71 "Hg (Feb 13, 4:00 pm)
Average74 °F81%29.88 "Hg
* Reported Feb 7 2:00 am — Feb 22 2:00 am, Maldonado, Weather by CustomWeather, © 2017

Note: Actual official high and low records may vary slightly from our data, if they occured in-between our weather recording intervals... More about our weather records

Advertising

Maldonado Weather History for the Previous 24 Hours

Scroll right to see more
 ConditionsComfort  
Time TempWeatherWind HumidityBarometerVisibility
2:00 am
Wed, Feb 22
70 °FClear.6 mph88%29.89 "Hg10 mi
1:00 am72 °FClear.6 mph88%29.92 "Hg10 mi
12:00 am72 °FClear.6 mph83%29.92 "Hg10 mi
11:00 pm
Tue, Feb 21
72 °FPartly cloudy.6 mph83%29.92 "HgN/A
10:00 pm72 °FClear.2 mph83%29.92 "Hg10 mi
9:00 pm73 °FClear.5 mph78%29.89 "Hg10 mi
8:00 pm75 °FClear.6 mph74%29.89 "Hg10 mi
7:00 pm75 °FBroken clouds.6 mph74%29.89 "HgN/A
6:00 pm77 °FBroken clouds.8 mph74%29.89 "HgN/A
5:00 pm79 °FPartly sunny.9 mph70%29.92 "HgN/A
4:00 pm79 °FScattered showers. Passing clouds.14 mph74%29.95 "HgN/A
3:00 pm79 °FPassing showers. Scattered clouds.9 mph61%29.98 "HgN/A
2:00 pm77 °FSprinkles. Scattered clouds.12 mph74%29.98 "Hg3 mi
1:00 pm86 °FThundershowers. Partly sunny.13 mph70%29.95 "HgN/A
12:00 pm88 °FPartly sunny.10 mph62%29.98 "HgN/A
11:00 am86 °FPartly sunny.5 mph70%29.98 "HgN/A
10:00 am84 °FPartly sunny.7 mph74%29.98 "HgN/A
9:00 am81 °FPartly sunny.7 mph79%29.98 "HgN/A
8:00 am79 °FSunny.2 mph94%29.98 "Hg10 mi
7:00 am75 °FSunny.3 mph100%29.98 "Hg10 mi
6:00 am75 °FPassing clouds.5 mph94%29.98 "HgN/A
Weather by CustomWeather, © 2017

See weather overviewHow to use our weather pages